Location: *
(5.5876°S, 104.3808°E)
Time: 06:05:52
(UTC+00:00)

Daily predictions for brighter satellites

Satellite Brightness Start Highest point End
(mag) Time Altitude Azimuth Time Altitude Azimuth Time Altitude Azimuth
GPS 2-18 Rocket1 3.9 12:02:11 10° SW 12:05:32 30° SSE 12:06:20 27° SE
Cosmos 1356 4.4 12:02:31 10° SSW 12:05:48 48° W 12:09:04 10° N
Cosmos 2263 4.1 12:04:31 10° N 12:10:05 72° ENE 12:14:58 14° SSE
Okean O Rocket 3.2 12:07:12 10° SSW 12:11:09 34° WSW 12:15:05 10° NW
Delta 2 Rocket 4.1 12:06:42 10° WNW 12:11:29 62° SW 12:14:35 24° SE
Cosmos 44 Rocket 3.7 12:08:42 10° SSW 12:13:35 67° WNW 12:18:36 10° NNE
Cosmos 2369 Rocket 2.7 12:11:40 10° NNW 12:17:10 61° WSW 12:22:41 10° S
Feng Yun 1-1 Rocket 4.4 12:12:11 10° S 12:18:02 84° WSW 12:23:57 10° NNW
Palapa B4 Rocket 3.9 12:13:26 10° SW 12:18:50 35° S 12:19:48 32° SE
OAO 3 Rocket 4.4 12:17:35 10° NNW 12:21:38 26° NE 12:22:33 24° NE
Lacrosse 5 rocket 3.1 12:21:56 10° WNW 12:24:55 24° WSW 12:27:24 13° S
Cosmos 1892 2.7 12:22:22 10° S 12:26:13 82° W 12:30:00 10° N
Cosmos 1689 Rocket 2.9 12:24:24 10° N 12:27:02 45° W 12:28:27 22° SW
Cosmos 1891 Rocket 4.4 12:21:18 10° N 12:27:42 83° E 12:34:02 10° S
Cosmos 990 Rocket 4.2 12:24:19 10° NNW 12:29:25 67° WSW 12:33:38 15° S
In-Cosmos 22 Rocket 4.1 12:25:14 10° S 12:30:39 80° W 12:35:57 10° N
Cosmos 2034 Rocket 4.2 12:25:49 10° NNE 12:31:49 48° E 12:33:38 38° SE
SJ 16-02 4.4 12:30:31 10° W 12:32:19 12° WSW 12:34:08 10° SW
CSL-04 Rocket 4.1 12:35:43 42° ENE 12:35:43 42° ENE 12:40:49 10° N
ATLAS 2AS CENTAUR R/B 4.2 12:29:31 10° SW 12:36:30 41° WNW 12:43:46 10° N
Cosmos 783 Rocket 4.3 12:33:19 10° S 12:38:34 80° ESE 12:43:43 10° NNE
IRS-1C Rocket 4.1 12:36:16 25° S 12:39:29 84° WSW 12:44:44 10° NNW
Cosmos 1953 Rocket 3.4 12:40:02 75° E 12:40:02 75° E 12:44:28 10° N
ARIANE 44L R/B 3.7 12:37:02 10° WNW 12:40:43 80° N 12:45:42 34° E
GPS 2-14 Rocket1 3.1 12:37:35 10° WNW 12:40:41 52° NNW 12:40:41 52° NNW
ARIANE 5 R/B 3.7 12:39:10 10° WNW 12:41:57 39° NNE 12:43:35 32° NE
SL-08 RB Rocket 4.1 12:42:09 28° S 12:44:25 62° WSW 12:48:59 10° NNW
Ariane H10-3 3.9 12:51:41 10° W 12:53:45 25° WSW 12:53:45 25° WSW
ARIANE 5 R/B 3.6 12:57:19 10° WNW 12:58:18 24° WNW 12:58:18 24° WNW
Okean-O 3.3 12:59:56 50° WSW 13:00:08 50° WSW 13:04:25 10° NNW
Cosmos 773 Rocket 4.3 12:59:58 10° SSW 13:05:12 64° WNW 13:10:23 10° N
ATLAS 3B CENTAUR R/B 3.8 13:02:06 10° NNW 13:08:00 39° NE 13:08:33 38° NE
Cosmos 2082 Rocket 2.7 13:02:56 10° SSW 13:08:25 55° WNW 13:13:52 10° N
Centaur AC-119 3.6 13:07:48 10° WSW 13:11:53 89° SSE 13:28:51 10° ENE
SPELTRA 4.0 13:08:58 10° W 13:10:53 33° W 13:10:53 33° W
CZ-4 R/B 4.4 13:16:42 10° SW 13:18:20 12° WSW 13:20:00 10° W
CZ-2C R/B 3.9 13:18:29 10° W 13:19:44 18° W 13:19:44 18° W
Cosmos 2278 Rocket 4.3 20:37:53 20° ESE 20:38:52 21° ESE 20:42:58 10° ENE
ATLAS 2A CENTAUR R/B 4.2 20:46:27 57° NNE 20:47:00 59° NE 21:05:51 10° ESE
SeaSat 1 4.2 20:46:44 10° ENE 20:50:46 26° ESE 20:50:50 26° ESE
ARIANE DEB (SPELDA) 3.8 20:56:28 65° NNE 20:56:28 65° NNE 20:59:55 10° E
ISO 3.4 20:56:47 64° NNW 20:56:52 65° N 21:00:57 10° ENE
Ariane H10+ 4.0 21:00:34 41° E 21:00:34 41° E 21:06:19 10° E
Hubble Space Telescope 3.4 21:07:55 14° SE 21:07:55 14° SE 21:08:32 10° SE
Cosmos 1607 3.9 21:07:52 86° ENE 21:07:52 86° ENE 21:14:11 10° NNE
BLOCK DM-SL R/B 4.4 21:09:05 41° WNW 21:12:27 60° N 21:17:25 10° ENE
Atlas Centaur 2 2.8 21:21:16 34° NNW 21:23:30 55° NE 21:30:12 10° ESE
Cosmos 1603 4.3 21:18:44 10° N 21:24:16 57° ENE 21:29:51 10° SSE
Delta 168 4.4 21:30:59 27° SSE 21:31:13 27° SSE 21:35:43 10° E
SJ-12 4.2 21:27:41 10° NNE 21:31:45 63° ESE 21:32:21 55° SE
Ariane 44LP R/B 4.4 21:35:51 48° WNW 21:37:12 73° N 21:50:15 10° E
ARIANE 5 R/B 3.4 21:36:50 51° WSW 21:38:15 81° S 22:01:45 10° E
SEDSat Delta rocket 3.9 21:40:44 47° WSW 21:42:08 58° SSW 21:48:40 10° SE
Sea Lan Dem Rocket 3.9 21:33:43 23° WNW 21:42:28 56° N 21:46:55 10° ENE
YAOGAN 6 3.3 21:42:57 10° NNE 21:46:31 52° E 21:48:52 20° S
CZ-2C R/B 3.6 21:46:48 12° SSE 21:47:58 13° SSE 21:49:51 10° ESE
ARIANE 5 R/B 2.7 21:47:52 36° N 21:48:07 37° NNE 21:52:49 10° E
Ariane H10 3.9 21:46:09 33° W 21:49:21 77° N 22:45:15 10° E
Cosmos 1486 Rocket 3.9 21:48:00 32° SSW 21:50:27 72° WNW 21:55:39 10° N
Cosmos 1763 Rocket 4.1 21:48:41 10° N 21:53:49 58° ENE 21:58:54 10° SSE
Meteosat 1 Rocket2 3.5 21:55:01 20° NW 21:57:24 53° NNE 22:02:02 10° ESE
SL-4 R/B 4.1 21:54:41 11° S 21:57:34 21° SE 22:00:43 10° ENE
Meteor 1-31 Rocket 3.0 21:57:25 10° N 22:01:06 46° W 22:01:53 40° WSW
Cosmos 1953 2.2 21:59:44 19° SSW 22:02:32 72° W 22:06:34 10° N
SWIFT 4.4 22:07:57 13° SSW 22:09:36 16° SSE 22:12:13 10° SE
Cosmos 724 4.4 22:08:43 16° SW 22:13:29 60° WNW 22:19:32 10° N
USA 281 3.8 22:10:14 10° SSE 22:16:43 61° ENE 22:23:09 10° N
DELTA 2 R/B (1) 3.7 22:15:11 17° SW 22:19:33 72° SE 22:25:05 10° NE
Cosmos 1943 3.7 22:15:01 10° NW 22:20:06 35° WSW 22:25:13 10° S
Cosmos 2100 Rocket 4.4 22:15:14 10° S 22:21:36 68° E 22:27:53 10° N
GPS 2-15 Rocket1 3.9 22:19:02 18° SW 22:22:07 40° SSE 22:26:30 10° E
CZ-4C R/B 3.2 22:13:37 10° NNW 22:22:11 65° WSW 22:30:27 10° SSE
Cosmos 2278 Rocket 3.1 22:19:48 18° WSW 22:22:41 27° WNW 22:27:23 10° NNW
CZ-4B R/B 2.5 22:20:10 10° N 22:23:48 76° WNW 22:27:24 10° SSW
Cosmos 1908 4.0 22:22:02 15° SW 22:24:37 31° W 22:28:03 10° NNW
SeaSat 1 3.8 22:24:23 10° NNW 22:28:01 21° WNW 22:30:37 14° WSW
Cosmos 540 Rocket 3.8 22:24:25 10° N 22:29:32 70° ENE 22:34:40 10° SSE
Cosmos 44 3.4 22:26:19 10° NW 22:30:40 42° WSW 22:34:49 10° S
CZ-4C R/B 3.4 22:29:07 10° SSE 22:32:42 68° E 22:36:15 10° N
MOS 1 Rocket 4.4 22:29:18 10° SSW 22:32:52 22° WSW 22:36:35 10° NW
Cosmos 1184 Rocket 3.2 22:31:19 10° NNW 22:34:19 37° W 22:37:21 10° SSW
Delta 2 Rocket 3.4 22:31:11 13° SW 22:35:24 88° SE 22:39:32 10° NE
Cosmos 1354 Rocket 4.2 22:30:58 10° SSW 22:36:07 53° WNW 22:41:17 10° N
Cosmos 1455 Rocket 4.1 22:32:48 10° SW 22:36:31 26° W 22:40:13 10° NNW
Cosmos 1544 Rocket 3.8 22:33:05 10° SSW 22:37:26 51° W 22:41:44 10° N
Cosmos 1346 Rocket 4.3 22:35:02 10° WNW 22:37:30 16° W 22:40:00 10° SW
Chandra Rocket (1) 2.9 22:34:45 10° NW 22:37:47 30° NNE 22:40:04 10° E
Cosmos 468 Rocket 4.5 22:35:25 10° NW 22:40:10 37° WSW 22:44:56 10° S
Lacrosse 5 rocket 2.9 22:36:19 10° S 22:40:41 40° ESE 22:44:56 10° NE
FUSE 3.9 22:35:39 10° WNW 22:41:03 79° SSW 22:46:27 10° ESE
H-2A R/B 4.4 22:39:25 10° NW 22:41:30 15° W 22:43:35 10° WSW
USA 290 3.5 22:41:38 10° NW 22:44:10 21° WSW 22:46:43 10° SSW
Hubble Space Telescope 2.7 22:43:29 10° WSW 22:45:44 14° SSW 22:48:00 10° S
Envisat 4.1 22:41:56 10° NNW 22:45:58 24° W 22:50:01 10° SW
Cosmos 1892 Rocket 4.0 22:42:28 10° N 22:46:44 67° E 22:51:03 10° S
GPS 2-14 Rocket1 2.8 22:44:22 10° WSW 22:48:28 84° SSE 22:52:37 10° ENE
Okean O Rocket 4.4 22:45:33 10° ENE 22:48:43 19° ESE 22:51:51 10° SSE
H-2A R/B 3.7 22:49:32 10° SSW 22:52:26 35° SE 23:02:27 10° ENE
SKYMED 2 3.6 22:48:39 10° S 22:53:01 85° W 22:57:20 10° NNW
Cosmos 1777 Rocket 4.0 22:47:51 10° SSW 22:53:06 87° WNW 22:58:21 10° N
H-2A R/B 3.2 22:49:18 10° SSE 22:53:17 47° ENE 22:57:11 10° N
PSLV R/B 4.0 22:49:47 10° NNE 22:53:34 76° ESE 22:57:27 10° S
